Weather History for KLEB - November, 2012

Change the Weather History Date:

Thursday, November 15, 2012

  Actual Average Record
Temperature  
Mean Temperature 30 °F -  
Max Temperature 41 °F 43 °F 69 °F (1993)
Min Temperature 19 °F 26 °F 10 °F (1942)
Degree Days  
Heating Degree Days 35    
Moisture  
Dew Point 21 °F    
Average Humidity 77    
Maximum Humidity 89    
Minimum Humidity 47    
Precipitation  
Precipitation 0.00 in - - ()
Sea Level Pressure  
Sea Level Pressure 30.44 in    
Wind  
Wind Speed 0 mph (South)    
Max Wind Speed 4 mph    
Max Gust Speed -    
Visibility 10 miles    
Events      
Averages and records for this station are not official NWS values.
T = Trace of Precipitation, MM = Missing Value Source: NWS Daily Summary

Daily Weather History Graph

Daily Weather History Graph

Search for Another Location

Airport or City:

Trip Planner

Search our weather history database for the weather conditions in past years. The results will help you decide how hot, cold, wet, or windy it might be!

Date:

Astronomy

Nov. 15, 2012 Rise Set
Actual Time 6:43 AM EST 4:23 PM EST
Civil Twilight 6:12 AM EST 4:54 PM EST
Nautical Twilight 5:38 AM EST 5:29 PM EST
Astronomical Twilight 5:04 AM EST 6:03 PM EST
Moon 8:38 AM EST (11/15) 6:09 PM EST (11/15)
Length of Visible Light 10h 41m
Length of Day
9h 39m
Waxing Crescent, 5% of the Moon is Illuminated
Nov 15
Waxing Crescent
Nov 20
First Quarter
Nov 28
Full
Dec 6
Last Quarter
Dec 13
New

Hourly Weather History & Observations

Time (EST) Temp. Windchill Dew Point Humidity Pressure Visibility Wind Dir Wind Speed Gust Speed Precip Events Conditions
12:53 AM 21.9 °F - 18.0 °F 85% 30.52 in 10.0 mi Calm Calm - N/A   Clear
1:53 AM 21.9 °F 17.2 °F 17.1 °F 82% 30.52 in 10.0 mi South 3.5 mph - N/A   Clear
2:53 AM 19.9 °F - 15.1 °F 81% 30.53 in 10.0 mi Calm Calm - N/A   Clear
3:53 AM 19.0 °F - 15.1 °F 85% 30.52 in 10.0 mi Calm Calm - N/A   Clear
4:53 AM 19.9 °F - 17.1 °F 89% 30.50 in 10.0 mi Calm Calm - N/A   Clear
5:05 AM 19.4 °F - 15.8 °F 86% 30.47 in 10.0 mi Calm Calm - N/A   Scattered Clouds
5:14 AM 21.2 °F - 17.6 °F 86% 30.47 in 10.0 mi Calm Calm - N/A   Mostly Cloudy
5:53 AM 21.9 °F - 18.0 °F 85% 30.52 in 10.0 mi Calm Calm - N/A   Scattered Clouds
6:53 AM 21.0 °F - 17.1 °F 85% 30.53 in 10.0 mi Calm Calm - N/A   Clear
7:53 AM 26.1 °F - 21.9 °F 84% 30.53 in 10.0 mi Calm Calm - N/A   Clear
8:53 AM 28.9 °F - 24.1 °F 82% 30.51 in 10.0 mi Calm Calm - N/A   Clear
9:53 AM 32.0 °F - 24.1 °F 73% 30.49 in 10.0 mi Calm Calm - N/A   Clear
10:53 AM 35.1 °F - 23.0 °F 61% 30.46 in 10.0 mi Calm Calm - N/A   Clear
11:53 AM 37.0 °F - 23.0 °F 57% 30.43 in 10.0 mi Calm Calm - N/A   Clear
12:53 PM 39.9 °F - 23.0 °F 51% 30.40 in 10.0 mi Calm Calm - N/A   Clear
1:53 PM 41.0 °F - 21.9 °F 47% 30.38 in 10.0 mi Calm Calm - N/A   Clear
2:53 PM 39.9 °F - 23.0 °F 51% 30.38 in 10.0 mi Calm Calm - N/A   Clear
3:53 PM 37.0 °F - 25.0 °F 62% 30.37 in 10.0 mi Calm Calm - N/A   Clear
4:53 PM 34.0 °F - 26.1 °F 73% 30.38 in 10.0 mi Calm Calm - N/A   Clear
5:53 PM 30.9 °F - 26.1 °F 82% 30.37 in 10.0 mi Calm Calm - N/A   Clear
6:53 PM 28.9 °F - 24.1 °F 82% 30.38 in 10.0 mi Calm Calm - N/A   Clear
7:53 PM 25.0 °F - 21.0 °F 85% 30.38 in 10.0 mi Calm Calm - N/A   Clear
8:53 PM 25.0 °F - 21.0 °F 85% 30.37 in 10.0 mi Calm Calm - N/A   Clear
9:53 PM 25.0 °F - 19.9 °F 81% 30.36 in 10.0 mi Calm Calm - N/A   Clear
10:53 PM 23.0 °F - 19.0 °F 85% 30.36 in 10.0 mi Calm Calm - N/A   Clear
11:53 PM 21.9 °F - 18.0 °F 85% 30.35 in 10.0 mi Calm Calm - N/A   Partly Cloudy